カタログに戻る

BRITE-U UNIBRITE

運用中科学SSO
NORAD 39092·PAYLOAD·🇮🇱 Israel

打ち上げ Feb 25, 2013 から Satish Dhawan Space Centre

Loading…

次のパス (今後24時間)

TLE

最新Source: Space-Track

元期: Sep 14, 2026, 10:50 UTC

1 39092U 13009G   26257.45140510  .00000093  00000-0  46238-4 0  9997
2 39092  98.4086  74.8431 0008589 337.5943  22.4867 14.36442435709800

AllMySatでBRITE-U UNIBRITEをリアルタイム追跡

Download on the App Store